Wind_Speed
12 12 12 10 11 13 12 9 8 8 8 9 12 13 21 20 21 19 19 23 25 25 26 27 25 32 33 37 36 33 34 31 32 34 36 37 38 40 42 43 43 46 49 52
13 12 12 11 13 11 10 9 13 12 8 9 13 13 17 19 19 22 24 25 28 31 33 34 35 42 38 37 35 34 34 29 30 31 34 36 37 39 39 39 41 43 45 48
13 13 12 12 12 11 12 11 14 14 12 11 15 13 16 17 19 24 28 29 32 34 37 40 42 44 42 38 35 31 34 33 32 34 38 39 40 40 41 42 42 42 43 43
15 14 13 13 13 12 14 10 12 12 13 18 21 14 19 18 18 21 26 29 33 38 42 44 43 46 44 39 40 35 34 32 33 35 39 42 43 41 41 44 46 46 47 47
17 14 13 16 14 13 17 14 19 17 18 16 19 23 20 19 19 20 24 29 34 39 44 45 46 46 44 44 43 40 36 32 31 33 36 40 43 45 46 48 47 48 50 51
19 18 18 17 16 19 19 18 18 17 19 18 20 24 23 23 20 22 26 31 35 39 44 45 46 44 45 43 41 39 36 35 35 35 36 38 41 43 46 48 49 50 51 51
21 19 18 19 21 19 21 20 18 20 20 17 23 26 26 25 26 28 31 34 38 41 43 45 44 41 43 40 39 38 36 36 37 39 41 42 43 45 46 46 47 49 50 51
22 22 20 23 23 19 21 22 20 20 19 22 23 27 26 28 27 29 33 33 36 41 43 44 38 38 42 43 40 38 37 37 39 40 41 43 44 47 49 49 49 49 49 50
23 25 22 23 19 20 24 24 23 22 22 22 26 26 29 28 29 30 32 35 39 42 40 40 38 43 44 42 40 38 37 39 43 44 46 49 51 51 51 50 50 49 48 50
19 24 24 25 23 23 23 26 27 25 27 25 24 27 25 27 33 31 33 36 38 39 40 38 42 48 49 43 44 43 40 43 46 49 52 55 57 59 58 55 55 53 47 48
23 23 23 29 22 27 27 28 29 28 28 29 26 21 23 32 35 32 35 34 35 37 35 39 44 47 45 44 47 46 45 48 52 55 58 60 61 63 64 72 66 56 51 47
24 22 18 26 21 28 29 27 28 29 29 32 31 28 24 34 34 37 41 39 38 32 35 42 45 45 46 48 50 49 49 53 56 60 62 64 68 65 71 59 54 40 36 36
23 28 22 23 24 28 32 32 31 33 32 32 31 27 31 36 37 39 41 37 37 35 38 46 47 47 50 53 53 53 54 55 58 61 64 67 65 70 52 42 30 27 29 29
29 31 26 26 27 30 34 34 33 32 32 31 33 34 37 36 40 39 38 35 36 31 45 48 46 48 53 54 53 51 52 55 58 60 63 63 70 49 36 31 26 20 19 25
39 34 33 32 27 32 34 34 33 31 31 34 34 38 41 42 39 31 35 40 39 42 49 47 48 51 54 54 53 51 50 52 55 58 60 65 47 33 35 30 22 20 20 21
37 34 31 29 27 29 35 33 32 32 34 36 37 41 41 37 33 31 43 42 38 45 47 46 50 52 54 54 51 49 48 50 54 56 59 43 37 28 25 21 15 15 16 13
36 31 28 28 30 32 31 28 31 31 40 40 39 36 35 30 31 39 44 37 38 48 51 49 52 52 52 52 49 49 49 51 52 54 45 30 24 19 15 16 10 11 7 5
40 36 32 34 36 37 28 29 32 34 33 29 29 28 25 30 33 35 36 39 48 52 47 49 51 50 51 49 49 50 52 53 53 46 27 24 14 14 13 16 9 13 13 11
39 39 36 34 30 27 23 27 23 24 30 31 28 27 30 32 34 44 43 44 46 46 44 48 47 48 49 48 49 50 52 51 46 23 20 17 11 12 14 15 8 12 9 15
31 29 41 35 28 24 20 24 26 26 30 29 26 27 30 33 39 35 38 40 43 50 44 45 44 46 47 47 47 50 51 43 25 19 14 10 9 12 10 18 16 13 18 13
36 33 32 31 25 23 21 23 21 23 25 23 23 25 29 36 38 35 36 46 46 45 41 39 43 45 44 45 45 48 47 29 22 18 11 7 7 11 11 12 14 9 9 8
32 25 24 20 23 21 18 20 20 20 17 19 19 23 32 31 35 37 43 41 39 36 37 38 41 41 42 41 42 43 36 28 18 19 11 7 5 6 11 9 10 10 12 14
26 22 20 20 23 21 21 20 20 21 22 24 21 28 33 33 37 38 37 36 34 33 35 36 38 39 39 39 38 39 29 25 9 14 14 9 5 5 8 9 11 12 14 17
23 25 25 27 22 23 23 23 23 20 22 22 24 29 32 32 33 33 32 30 30 33 34 35 35 36 36 36 36 37 26 22 9 9 9 8 8 6 9 11 11 13 15 18
24 24 25 29 28 19 23 22 19 21 24 23 26 26 26 27 27 28 27 28 30 32 32 32 32 33 33 34 36 38 27 19 12 7 10 9 8 13 13 14 13 10 10 7
29 28 27 31 29 25 23 24 23 24 21 21 22 25 27 26 24 24 26 26 28 30 29 29 29 31 32 33 35 38 28 14 11 3 2 7 8 11 12 13 14 14 14 12
Wind_Direction
249 249 256 246 241 231 236 251 279 295 319 330 332 324 313 324 334 348 342 335 335 328 330 329 318 316 319 315 303 299 292 292 292 292 291 290 288 285 283 282 280 277 275 275
252 257 250 235 230 232 241 246 251 279 290 313 307 309 304 312 329 335 340 335 334 333 332 330 327 328 324 316 306 302 293 297 297 297 295 293 290 288 284 283 284 283 279 276
249 251 243 244 245 243 244 249 256 276 301 292 291 298 278 299 324 335 335 332 332 325 323 322 320 318 320 314 312 305 301 298 295 290 289 289 286 285 282 281 281 283 286 286
244 241 246 248 254 254 260 257 259 255 256 256 278 295 274 295 314 324 320 321 320 319 318 316 314 319 320 315 312 316 316 306 299 292 286 284 283 282 280 280 279 281 282 282
245 246 253 248 255 253 258 245 246 247 255 265 270 285 272 288 300 311 312 315 314 312 311 311 312 314 318 316 318 318 314 310 300 291 289 291 291 289 285 280 278 277 278 278
244 239 243 249 247 249 259 252 261 262 263 268 271 282 279 287 304 312 310 310 308 305 309 310 316 319 316 315 315 315 315 312 308 306 305 304 301 297 292 288 284 279 278 275
249 251 256 256 254 256 258 262 263 262 269 274 275 273 286 300 307 309 310 303 303 302 307 318 317 317 317 314 314 314 311 311 312 313 312 310 307 304 299 295 290 284 279 275
253 253 251 251 260 261 260 264 264 262 267 272 273 282 292 301 301 304 302 303 308 311 311 319 319 318 317 315 314 309 310 313 311 310 310 310 308 306 300 295 294 290 283 277
262 262 254 255 258 262 270 267 263 264 265 268 273 284 295 297 299 304 306 304 305 304 309 320 319 318 316 313 309 306 311 312 310 312 313 313 312 309 306 299 295 291 287 281
258 260 262 261 262 271 265 267 271 273 274 273 274 281 292 294 292 297 298 304 305 310 311 317 326 325 320 311 306 307 312 312 311 313 312 311 313 312 309 303 298 292 289 287
258 260 263 269 268 273 276 278 277 280 281 281 281 284 289 288 293 297 301 304 305 309 322 315 318 323 316 307 304 307 311 310 307 308 308 312 314 313 310 306 298 291 286 283
262 267 259 272 267 267 269 270 275 274 277 280 292 292 296 294 301 302 302 304 308 311 317 321 323 320 320 311 305 307 307 304 305 307 310 314 316 315 313 306 299 291 281 276
264 268 264 259 265 258 263 266 270 275 282 290 287 295 293 293 294 299 304 309 307 306 316 322 320 321 319 317 313 309 304 304 305 309 313 317 317 318 315 314 306 291 281 273
258 261 263 259 253 257 265 270 272 275 281 285 285 292 289 290 295 303 305 309 312 309 314 318 318 315 314 318 318 308 304 305 308 312 316 317 320 317 319 320 310 304 295 289
263 266 267 267 261 258 260 264 267 272 276 278 284 285 284 291 296 298 305 305 307 306 312 315 314 314 316 321 316 315 314 311 312 317 320 322 323 318 318 323 309 300 299 296
264 266 267 267 262 253 256 263 270 273 277 280 279 282 290 296 298 307 314 306 301 306 309 317 317 319 325 319 319 317 314 315 320 323 325 327 328 327 322 327 325 309 303 288
262 260 260 258 260 256 254 250 253 258 261 268 276 283 283 297 305 294 300 294 296 313 318 319 321 324 323 322 322 320 321 323 325 325 329 333 336 338 349 346 2 9 6 355
263 265 260 260 260 260 254 248 248 254 268 276 284 288 289 293 292 296 298 299 308 317 322 319 320 325 323 325 324 326 327 328 325 328 329 334 343 357 351 3 18 39 43 50
265 268 267 263 278 258 243 250 252 259 265 278 282 284 286 296 300 304 303 306 314 320 315 318 323 324 326 326 328 330 329 328 329 333 342 339 340 2 16 25 56 45 86 64
268 273 262 268 258 245 234 248 256 262 266 276 290 294 298 290 291 289 294 301 306 319 315 320 326 326 328 329 333 332 335 338 342 359 348 9 18 23 6 7 39 59 56 39
263 263 250 244 242 248 248 247 254 257 267 273 279 283 298 290 281 290 301 313 316 315 317 324 325 326 327 332 335 336 344 344 343 357 7 352 7 20 26 22 28 33 21 22
245 231 230 240 243 246 242 245 256 261 277 287 275 292 305 295 283 292 309 311 313 318 321 325 324 326 327 334 337 340 341 338 344 4 358 354 13 331 2 19 31 38 60 62
218 234 232 242 244 249 250 254 274 268 284 303 290 284 292 295 297 305 308 312 319 318 321 323 324 327 329 335 337 343 342 346 332 0 13 27 28 25 25 38 62 75 73 79
221 231 235 230 245 255 253 257 265 273 276 276 282 283 287 294 301 304 307 315 319 318 323 324 325 326 332 334 337 345 341 354 344 12 359 9 356 14 57 76 69 65 82 82
226 236 236 234 254 254 255 263 269 262 265 279 280 285 292 298 302 307 313 316 317 319 324 324 325 326 333 336 339 342 343 345 353 278 359 20 53 78 70 81 89 81 69 82
232 240 244 242 251 260 260 265 268 271 283 285 292 296 298 302 305 310 311 316 317 322 325 325 323 328 336 338 341 341 347 359 9 4 128 71 80 68 68 81 70 58 17 0
Height
5860 5860 5860 5859 5859 5859 5859 5857 5857 5856 5855 5856 5855 5854 5850 5848 5845 5843 5841 5839 5836 5832 5829 5826 5824 5821 5817 5813 5808 5804 5799 5795 5791 5788 5784 5782 5779 5776 5772 5769 5767 5765 5762 5759
5857 5856 5857 5856 5856 5856 5854 5853 5852 5852 5852 5852 5851 5851 5847 5843 5842 5839 5837 5834 5829 5824 5821 5819 5816 5812 5809 5806 5800 5795 5791 5787 5783 5779 5775 5772 5769 5766 5763 5759 5755 5752 5751 5749
5853 5855 5853 5853 5852 5851 5850 5851 5850 5848 5848 5848 5847 5847 5844 5842 5837 5832 5828 5825 5823 5820 5817 5813 5810 5806 5803 5798 5792 5787 5782 5778 5774 5770 5765 5761 5758 5756 5753 5750 5746 5742 5739 5735
5849 5849 5849 5849 5849 5848 5847 5848 5848 5848 5846 5844 5842 5843 5838 5835 5832 5829 5825 5822 5818 5814 5810 5808 5803 5798 5793 5787 5781 5777 5773 5769 5764 5759 5753 5749 5746 5746 5743 5739 5735 5731 5727 5725
5844 5845 5844 5844 5845 5844 5844 5844 5842 5843 5841 5841 5838 5835 5832 5830 5827 5824 5822 5818 5814 5810 5806 5801 5797 5792 5784 5777 5772 5766 5763 5758 5753 5748 5744 5739 5736 5732 5729 5725 5722 5718 5714 5710
5837 5839 5839 5839 5840 5838 5838 5839 5838 5837 5836 5836 5833 5830 5828 5825 5822 5820 5817 5814 5811 5806 5800 5794 5788 5782 5777 5771 5765 5759 5753 5748 5743 5738 5734 5730 5725 5721 5716 5711 5707 5703 5700 5697
5832 5833 5835 5835 5834 5834 5833 5833 5834 5832 5830 5831 5827 5824 5822 5818 5816 5814 5812 5809 5805 5800 5793 5788 5783 5777 5771 5764 5758 5751 5745 5739 5735 5730 5725 5720 5714 5708 5702 5696 5692 5688 5685 5682
5827 5828 5830 5829 5828 5829 5827 5827 5828 5826 5825 5824 5821 5816 5815 5814 5812 5810 5808 5804 5798 5790 5786 5781 5776 5770 5763 5757 5750 5743 5736 5732 5727 5722 5716 5710 5703 5696 5690 5683 5677 5672 5668 5665
5821 5821 5823 5824 5823 5824 5821 5820 5821 5820 5819 5818 5815 5813 5811 5808 5806 5803 5799 5794 5791 5785 5780 5775 5771 5765 5758 5750 5741 5734 5729 5723 5718 5711 5704 5697 5691 5684 5676 5669 5662 5655 5651 5647
5815 5814 5816 5816 5817 5816 5815 5814 5813 5813 5812 5812 5811 5808 5807 5803 5799 5797 5794 5789 5784 5777 5772 5768 5763 5757 5750 5741 5731 5724 5719 5713 5707 5700 5693 5685 5676 5667 5658 5651 5645 5638 5634 5630
5807 5810 5812 5808 5814 5810 5809 5808 5806 5806 5806 5804 5805 5806 5803 5796 5792 5791 5787 5782 5778 5772 5767 5762 5757 5750 5741 5731 5723 5716 5711 5704 5697 5690 5681 5672 5661 5650 5639 5628 5619 5614 5613 5611
5802 5802 5805 5802 5806 5803 5802 5802 5800 5799 5800 5797 5795 5795 5796 5787 5784 5781 5777 5774 5771 5766 5761 5757 5750 5742 5733 5724 5716 5710 5703 5695 5687 5678 5667 5657 5644 5631 5618 5604 5595 5594 5594 5595
5796 5794 5797 5798 5798 5795 5793 5794 5794 5792 5790 5790 5789 5790 5786 5782 5779 5774 5768 5766 5762 5758 5754 5749 5742 5734 5724 5717 5710 5702 5692 5684 5675 5664 5654 5641 5628 5615 5602 5592 5584 5581 5581 5582
5788 5788 5790 5791 5791 5788 5786 5786 5787 5787 5786 5785 5782 5780 5776 5774 5771 5769 5764 5760 5756 5753 5748 5743 5736 5727 5717 5710 5701 5690 5682 5673 5663 5653 5641 5627 5613 5602 5594 5587 5581 5576 5576 5575
5776 5780 5781 5782 5783 5781 5779 5779 5780 5781 5780 5777 5777 5772 5768 5767 5765 5763 5760 5755 5752 5746 5741 5737 5728 5717 5709 5701 5690 5680 5670 5661 5652 5641 5628 5614 5601 5594 5587 5581 5576 5573 5571 5569
5770 5772 5772 5773 5774 5773 5771 5773 5773 5772 5770 5767 5766 5763 5760 5759 5758 5755 5750 5745 5742 5740 5736 5728 5718 5708 5700 5691 5681 5671 5661 5652 5641 5629 5616 5604 5596 5588 5582 5577 5572 5568 5566 5564
5761 5763 5765 5765 5764 5763 5766 5768 5766 5765 5758 5759 5759 5758 5754 5753 5752 5749 5743 5738 5737 5733 5726 5717 5708 5700 5692 5681 5671 5661 5651 5641 5630 5619 5608 5600 5594 5587 5581 5576 5572 5568 5565 5562
5749 5753 5755 5755 5756 5756 5759 5757 5756 5755 5753 5752 5751 5751 5749 5749 5746 5739 5734 5733 5729 5723 5715 5708 5702 5694 5684 5674 5663 5652 5640 5630 5620 5610 5603 5598 5593 5587 5582 5578 5573 5570 5566 5564
5741 5741 5744 5746 5748 5747 5748 5746 5747 5746 5745 5744 5745 5745 5744 5740 5737 5728 5727 5725 5722 5716 5709 5702 5696 5686 5677 5667 5657 5645 5634 5622 5611 5603 5601 5596 5593 5588 5586 5580 5576 5574 5570 5568
5732 5734 5736 5739 5739 5739 5741 5741 5741 5741 5739 5739 5740 5740 5738 5735 5730 5727 5724 5722 5717 5709 5701 5696 5689 5680 5671 5661 5651 5640 5628 5615 5607 5603 5600 5596 5594 5591 5588 5585 5582 5578 5575 5573
5723 5725 5725 5729 5730 5732 5734 5733 5735 5736 5738 5736 5736 5735 5733 5728 5724 5722 5719 5714 5707 5700 5695 5690 5682 5675 5666 5657 5647 5637 5625 5615 5608 5604 5600 5597 5595 5593 5591 5588 5584 5581 5578 5575
5715 5717 5719 5721 5722 5726 5727 5728 5729 5730 5729 5730 5730 5727 5723 5719 5715 5714 5711 5706 5699 5694 5689 5684 5677 5670 5662 5654 5645 5634 5625 5617 5611 5606 5602 5599 5596 5595 5592 5590 5587 5584 5582 5579
5708 5712 5714 5716 5717 5718 5719 5721 5723 5722 5723 5723 5720 5718 5716 5713 5710 5707 5703 5698 5694 5690 5685 5679 5673 5666 5658 5650 5642 5632 5624 5617 5612 5608 5604 5601 5598 5597 5595 5592 5590 5589 5586 5584
5700 5703 5704 5708 5711 5711 5712 5714 5716 5717 5718 5716 5715 5713 5711 5709 5705 5701 5697 5693 5689 5685 5681 5675 5668 5662 5655 5648 5640 5631 5623 5617 5612 5610 5607 5605 5602 5600 5597 5596 5594 5594 5591 5590
5694 5697 5698 5701 5703 5706 5706 5708 5710 5711 5709 5709 5708 5706 5705 5702 5699 5696 5692 5689 5685 5681 5677 5671 5665 5659 5653 5645 5637 5629 5621 5616 5612 5610 5609 5607 5605 5603 5601 5599 5598 5597 5594 5593
5687 5690 5691 5693 5697 5701 5701 5702 5702 5702 5703 5702 5701 5699 5698 5696 5694 5691 5688 5684 5681 5677 5672 5667 5662 5656 5650 5643 5635 5626 5618 5614 5611 5609 5610 5609 5607 5606 5604 5603 5601 5600 5597 5595